Location: *
(48.8489°N, 2.3218°E)
Time: 06:27:33
(UTC+00:00)

Cosmos 2322 Rocket - Pass Details

Date: 23 August 2019
Orbit: 834 x 849 km, 71.0° (Epoch: 20 September)

Event Time Altitude Azimuth Distance (km) Brightness Sun altitude
Rises 21:17:12 0° 335° (NNW) 3,405 6.7 -20.7°
Reaches altitude 10° 21:19:54 10° 344° (NNW) 2,465 5.5 -21.0°
Maximum altitude 21:25:00 34° 49° (NE) 1,356 3.2 -21.5°
Enters shadow 21:26:53 27° 85° (E) 1,551 3.3 -21.7°
